Regional Weather Roundup
Issued by NWS

Home | Current Version | Previous Version | Text Only | Print | Product List | Glossary Off
Versions: 1 2 3 4 5 6 7 8 9 10 11 12 13 14 15 16 17 18 19 20 21 22 23 24 25 26 27 28 29 30 31 32 33 34 35 36 37 38 39 40 41 42 43 44 45 46 47 48 49 50

000
ASUS43 KFSD 271502
RWRSD

WEATHER ROUNDUP FOR SOUTH DAKOTA
NATIONAL WEATHER SERVICE SIOUX FALLS SD
900 AM CST SAT DEC 27 2014

NOTE: "FAIR" INDICATES FEW OR NO CLOUDS BELOW 12,000 FEET WITH NO
SIGNIFICANT WEATHER AND/OR OBSTRUCTIONS TO VISIBILITY.


SDZ001>005-009-010-012>017-271600-
NORTHWEST AND NORTH CENTRAL SOUTH DAKOTA

CITY           SKY/WX    TMP DP  RH WIND       PRES   REMARKS
BUFFALO          N/A     15  11  83 W12       29.99S WCI   2
FAITH            N/A     22  17  81 W8        30.09S WCI  12
MOBRIDGE       CLOUDY    10   5  80 SE5       30.09S WCI   2
$$

SDZ012>016-024>037-041>051-057-063-072>074-271600-
SOUTHWEST AND SOUTH CENTRAL SOUTH DAKOTA

CITY           SKY/WX    TMP DP  RH WIND       PRES   REMARKS
RAPID CTY ARPT CLEAR      3  -1  83 CALM      30.11R
PIERRE         CLEAR      7   4  87 W7        30.15F WCI  -5
CUSTER         CLEAR     15   7  70 W10       29.99R WCI   2
ELLSWORTH AFB  CLEAR     10   5  82 SW2       30.09S
PHILIP         PTCLDY    11   7  84 W10       30.16S WCI  -3
PINE RIDGE     PTCLDY     5   1  83 CALM      30.13F
WINNER         FAIR      12   7  80 W8        30.17R WCI   0
$$

SDZ004>011-016>023-039-040-271600-
NORTHEAST SOUTH DAKOTA

CITY           SKY/WX    TMP DP  RH WIND       PRES   REMARKS
ABERDEEN       CLEAR      4  -1  80 SW6       30.16S WCI  -7
WATERTOWN      CLEAR      4   0  83 NW6       30.12R WCI  -7
SISSETON         N/A      7   3  84 CALM      30.13S
$$

SDZ017-020-022-023-036>040-048>070-271600-
SOUTHEAST SOUTH DAKOTA

CITY           SKY/WX    TMP DP  RH WIND       PRES   REMARKS
SIOUX FALLS    PTCLDY    13   9  84 NW8       30.16S WCI   2
HURON          CLEAR      0  -3  87 W7        30.20R WCI -13
MITCHELL       PTCLDY     7   4  87 W6        30.22R WCI  -3
YANKTON        PTCLDY    10   9  92 W10       30.23R WCI  -3
$$

ABBREVIATIONS USED IN REMARKS
   TC - TEMPERATURE IN CELSIUS
  WCI - WIND CHILL INDEX
   HX - HEAT INDEX
  VSB - VISIBILITY




USA.gov is the U.S. government's official web portal to all federal, state and local government web resources and services.